Temp
57 57 57 57 57 56 56 56 56 56 56 56 57 57 57 57 56 53 46 58 57 61 63 63 68 65 66 65 66 63 59 55 59 60 63 71 71 71 73 70 71 72 71 72 70
57 56 56 56 56 56 56 56 55 56 56 56 56 56 56 57 51 46 57 62 62 62 59 58 62 64 61 61 65 62 56 57 66 68 67 70 71 70 67 67 65 65 71 70 68
56 56 56 56 56 56 56 55 55 55 56 56 56 56 56 57 46 55 65 64 63 63 60 58 61 64 58 60 60 60 56 63 63 69 71 71 69 69 68 63 67 64 62 65 66
55 55 55 56 56 56 55 55 55 56 56 56 56 56 57 53 47 61 65 63 64 64 59 58 58 57 55 54 60 55 60 65 66 69 68 69 70 67 68 68 71 68 65 65 65
54 55 55 55 55 55 55 55 55 56 56 56 56 56 54 44 46 58 61 60 63 59 56 56 55 56 54 57 58 56 60 64 68 68 68 67 69 68 64 68 70 67 66 64 65
54 54 54 54 55 55 55 55 55 55 55 56 57 55 49 39 58 58 57 57 60 58 55 56 57 60 56 57 57 60 60 63 67 66 67 65 64 65 63 67 65 64 64 66 67
54 54 54 54 54 54 54 55 54 55 55 56 57 54 47 46 59 60 57 56 57 56 54 58 61 59 59 54 62 61 55 60 63 65 64 67 60 61 65 65 62 62 65 67 68
54 54 54 54 54 54 54 54 54 55 56 56 57 52 43 59 61 57 59 55 56 56 55 59 60 57 56 61 57 54 55 49 60 61 63 65 55 65 65 63 61 63 65 67 67
54 54 54 53 53 53 53 54 54 56 55 56 51 48 42 59 53 59 58 55 56 53 53 61 57 54 55 50 50 51 45 48 53 62 61 60 58 64 63 63 60 62 64 66 67
54 54 54 53 53 53 53 53 54 55 55 55 54 42 49 53 58 58 58 58 56 52 51 50 52 48 48 47 40 44 43 48 50 55 60 54 60 59 61 60 60 62 64 66 65
53 53 53 53 53 53 50 50 46 45 46 43 45 45 50 56 60 55 57 54 54 51 44 48 43 40 45 49 51 51 49 48 52 58 55 56 60 58 60 60 61 61 63 64 63
53 53 53 53 53 52 50 46 47 46 36 47 46 45 50 52 44 53 57 48 48 44 47 44 39 48 51 49 49 47 48 47 54 58 57 55 57 59 59 58 62 63 63 64 63
53 53 53 52 52 49 45 48 52 50 38 41 48 47 51 51 47 50 53 50 46 43 44 41 46 51 49 46 44 46 44 47 50 55 56 54 53 52 57 61 62 64 66 64 62
52 52 52 52 49 45 46 50 49 49 32 39 47 52 54 54 45 55 56 53 47 44 45 45 51 48 47 45 47 41 51 50 50 49 45 57 44 52 56 56 58 60 61 61 61
52 52 52 51 46 44 48 48 49 47 19 43 46 60 55 47 50 51 59 53 46 46 47 43 46 45 43 46 50 46 53 50 50 49 49 48 47 54 56 53 55 59 60 61 62
52 52 52 47 43 47 47 45 47 31 17 36 45 43 43 46 48 51 51 55 54 48 48 49 53 52 51 52 52 55 51 51 50 47 37 49 49 49 52 55 57 60 61 63 62
52 51 50 47 41 47 43 45 31 20 38 31 34 40 40 38 42 44 41 39 37 36 38 45 47 53 53 48 52 52 46 36 34 34 36 50 45 54 57 61 61 60 60 63 64
50 49 47 49 46 43 44 39 18 28 29 37 36 37 34 37 38 38 36 33 39 36 37 37 34 47 54 51 47 47 48 39 30 34 40 47 42 52 61 65 66 65 65 64 65
49 44 44 47 44 43 41 20 21 25 31 30 32 31 31 34 34 35 34 31 32 34 28 33 37 49 53 54 55 47 42 54 44 42 41 46 49 57 60 61 63 63 64 64 65
41 41 45 46 42 41 32 26 28 36 36 34 23 28 22 28 29 31 29 31 30 33 34 34 32 47 51 55 54 52 56 41 43 32 34 40 47 49 51 56 60 61 61 63 64
38 36 46 44 44 37 22 27 31 37 37 31 27 25 26 25 29 29 27 31 32 31 33 36 33 40 48 47 47 47 46 48 47 43 38 35 44 54 57 58 58 61 63 63 63
36 29 47 42 32 29 26 31 36 33 37 34 33 31 26 29 27 27 27 30 35 31 28 33 32 30 42 51 56 53 49 50 38 36 40 39 45 56 60 62 62 63 64 65 64
31 32 41 41 21 23 31 31 33 31 32 31 29 32 31 27 23 29 30 38 38 33 29 32 31 31 38 45 50 48 49 51 48 46 41 38 43 57 56 58 61 63 66 65 65
32 23 31 34 33 29 26 27 27 35 32 32 31 33 28 26 31 26 29 35 36 36 36 33 30 30 33 38 42 43 47 51 49 42 44 45 47 46 47 49 54 61 65 64 64
30 25 29 23 27 29 30 29 25 25 32 33 29 29 26 21 25 26 30 30 35 34 36 29 23 30 34 38 40 40 45 47 47 49 44 50 46 40 44 46 50 58 62 62 62
27 26 32 29 31 29 29 27 25 27 27 27 26 28 28 22 24 22 27 27 26 32 31 31 24 28 29 42 42 37 40 45 43 40 47 47 40 43 47 51 49 52 59 60 61
33 37 31 28 28 28 26 27 27 29 32 33 30 27 27 28 30 31 32 31 30 26 26 27 24 24 31 36 41 31 33 36 35 37 38 40 35 42 43 45 45 47 50 51 57
MSLP
1021.88 1021.52 1021.13 1020.80 1020.52 1020.20 1019.90 1019.64 1019.38 1019.15 1018.88 1018.63 1018.43 1018.15 1017.80 1017.41 1016.95 1016.78 1016.14 1014.12 1013.96 1013.52 1013.28 1012.82 1012.26 1012.26 1012.24 1011.89 1011.37 1011.16 1009.90 1009.02 1008.99 1009.14 1009.30 1009.00 1009.18 1009.65 1009.94 1009.89 1010.47 1011.16 1011.51 1012.08 1013.93
1021.74 1021.37 1021.02 1020.65 1020.32 1019.97 1019.65 1019.36 1019.10 1018.84 1018.54 1018.32 1018.13 1017.88 1017.53 1017.07 1016.54 1015.60 1014.15 1013.41 1013.19 1013.24 1013.28 1012.77 1012.18 1011.97 1011.84 1011.57 1011.29 1010.60 1009.49 1008.92 1008.85 1008.78 1008.80 1009.06 1009.41 1009.59 1010.08 1010.27 1010.87 1011.64 1012.13 1012.95 1013.95
1021.72 1021.27 1020.84 1020.44 1020.05 1019.69 1019.34 1019.02 1018.71 1018.41 1018.17 1017.97 1017.85 1017.69 1017.40 1016.96 1016.15 1013.58 1012.96 1012.95 1012.46 1012.54 1012.89 1012.94 1012.29 1011.67 1011.47 1011.21 1011.06 1010.39 1009.03 1009.08 1009.05 1008.47 1008.36 1008.93 1009.41 1009.78 1009.94 1010.29 1010.42 1011.33 1012.46 1013.36 1014.07
1021.63 1021.13 1020.62 1020.17 1019.73 1019.28 1018.87 1018.52 1018.14 1017.82 1017.65 1017.52 1017.48 1017.42 1017.10 1016.89 1015.32 1012.44 1012.47 1012.46 1011.95 1012.23 1012.57 1012.40 1012.26 1011.67 1011.16 1010.68 1010.52 1010.48 1009.81 1009.18 1008.88 1008.49 1008.53 1008.58 1009.23 1009.69 1010.02 1009.96 1010.39 1011.34 1012.67 1013.20 1013.85
1021.46 1020.88 1020.38 1019.90 1019.38 1018.94 1018.45 1017.94 1017.54 1017.23 1017.06 1016.99 1016.99 1017.09 1016.94 1016.72 1014.30 1012.73 1012.67 1012.77 1012.15 1012.27 1012.25 1011.94 1011.80 1011.44 1010.74 1010.45 1010.55 1010.15 1009.60 1009.33 1008.63 1008.12 1008.55 1009.02 1009.13 1009.67 1010.18 1010.18 1010.98 1011.65 1012.41 1012.99 1013.43
1021.37 1020.73 1020.13 1019.70 1019.24 1018.75 1018.17 1017.48 1017.10 1016.75 1016.40 1016.25 1016.38 1016.80 1016.85 1015.82 1012.73 1012.81 1012.99 1013.14 1012.91 1012.79 1012.42 1011.85 1011.07 1010.78 1010.49 1009.94 1009.64 1009.41 1009.64 1009.18 1008.48 1008.04 1007.85 1008.97 1009.50 1009.95 1010.81 1010.78 1011.48 1011.77 1012.24 1012.54 1012.61
1021.33 1020.69 1020.11 1019.58 1019.09 1018.50 1017.85 1017.08 1016.65 1016.20 1015.68 1015.56 1015.75 1016.34 1016.14 1013.57 1012.29 1012.47 1012.72 1012.51 1012.38 1012.69 1012.28 1011.92 1011.26 1010.75 1009.98 1009.64 1009.53 1009.42 1009.48 1008.93 1008.33 1008.10 1007.87 1008.54 1009.22 1009.33 1009.91 1010.92 1011.45 1012.13 1012.14 1012.01 1012.02
1021.33 1020.71 1020.28 1019.61 1018.97 1018.27 1017.55 1016.66 1016.12 1015.63 1015.33 1015.22 1015.39 1015.94 1014.51 1012.19 1012.07 1012.10 1011.90 1011.76 1011.69 1011.94 1012.20 1011.72 1011.62 1011.20 1010.17 1009.38 1009.33 1009.26 1009.34 1008.28 1007.47 1008.07 1008.09 1008.38 1007.87 1008.97 1009.92 1010.65 1011.19 1011.89 1012.19 1012.28 1012.90
1021.36 1020.76 1020.25 1019.57 1018.77 1018.06 1017.22 1016.27 1015.81 1015.48 1015.41 1015.36 1015.76 1015.58 1013.44 1012.08 1011.95 1010.87 1011.18 1011.03 1011.15 1011.57 1011.62 1011.61 1011.61 1010.80 1009.99 1009.35 1009.06 1008.85 1007.46 1007.41 1007.43 1007.23 1007.80 1008.02 1007.78 1008.50 1009.81 1010.10 1010.70 1011.48 1011.67 1011.77 1012.36
1021.25 1020.65 1020.02 1019.34 1018.57 1017.79 1016.69 1015.84 1015.51 1015.54 1015.44 1015.46 1015.26 1015.51 1012.95 1011.63 1011.01 1010.73 1010.72 1010.51 1010.54 1011.08 1011.41 1011.49 1010.83 1010.06 1009.66 1008.74 1006.67 1007.02 1007.44 1007.35 1007.06 1007.30 1007.30 1007.77 1007.54 1008.10 1009.10 1009.67 1009.86 1010.57 1011.14 1011.23 1011.70
1021.09 1020.48 1019.70 1019.02 1018.32 1017.59 1016.69 1016.04 1016.36 1016.00 1015.72 1015.34 1014.71 1014.02 1012.35 1011.38 1010.79 1010.09 1010.08 1010.17 1010.11 1010.45 1010.46 1010.62 1010.01 1008.17 1006.83 1007.12 1007.43 1007.23 1007.24 1007.13 1006.97 1006.84 1006.87 1006.95 1007.23 1007.63 1008.41 1009.18 1009.70 1010.21 1010.41 1010.61 1011.54
1020.88 1020.11 1019.34 1018.76 1018.15 1017.51 1017.25 1017.40 1017.84 1018.22 1016.16 1014.28 1013.74 1013.52 1012.24 1012.07 1011.12 1009.73 1009.94 1009.96 1009.38 1009.27 1009.50 1009.93 1008.32 1007.65 1007.82 1008.13 1007.77 1007.52 1007.09 1006.92 1006.61 1006.31 1006.47 1006.62 1006.72 1007.00 1007.50 1008.03 1008.20 1008.52 1009.32 1010.21 1011.47
1020.53 1019.70 1018.91 1018.36 1017.88 1017.84 1018.13 1017.89 1017.83 1017.90 1017.05 1013.90 1012.69 1012.09 1011.36 1011.57 1010.47 1009.35 1009.59 1009.23 1008.73 1008.55 1008.20 1007.74 1007.16 1007.71 1007.45 1007.66 1007.73 1007.19 1007.07 1006.85 1006.22 1006.02 1006.45 1006.36 1006.75 1007.05 1007.47 1007.72 1008.29 1008.79 1009.47 1010.25 1011.20
1020.18 1019.46 1018.68 1018.11 1018.12 1018.47 1018.15 1017.98 1017.98 1017.90 1016.79 1013.81 1012.02 1010.99 1010.78 1010.51 1009.72 1008.86 1008.60 1008.53 1008.05 1007.48 1007.53 1007.03 1006.67 1006.65 1006.56 1006.74 1006.95 1006.86 1006.88 1006.79 1006.31 1005.87 1005.33 1005.54 1005.38 1006.07 1006.63 1007.15 1007.71 1008.24 1008.93 1009.79 1010.96
1020.00 1019.18 1018.56 1018.17 1018.66 1018.58 1018.25 1017.92 1017.62 1017.81 1016.45 1013.35 1011.75 1010.76 1010.87 1010.65 1009.80 1008.20 1007.99 1007.76 1007.07 1006.69 1007.00 1006.15 1005.71 1006.03 1006.13 1005.77 1006.24 1005.91 1006.14 1006.37 1006.33 1005.95 1005.52 1005.33 1004.81 1004.30 1005.65 1006.11 1006.64 1007.45 1008.38 1009.28 1010.32
1019.64 1019.04 1018.44 1018.60 1018.89 1018.46 1018.21 1018.03 1017.73 1017.71 1015.63 1013.64 1012.55 1011.92 1011.08 1010.66 1009.83 1008.79 1008.09 1007.72 1006.64 1006.35 1006.21 1005.57 1005.03 1004.93 1004.45 1005.14 1005.45 1005.51 1005.69 1006.04 1006.31 1006.36 1005.35 1004.15 1003.94 1003.19 1003.56 1004.22 1005.72 1006.65 1007.49 1008.40 1009.52
1019.29 1018.89 1018.55 1018.86 1019.47 1018.37 1018.31 1018.18 1018.29 1017.57 1016.07 1015.36 1014.23 1013.29 1012.38 1011.63 1010.43 1010.03 1009.27 1008.72 1008.25 1007.33 1006.22 1005.69 1004.78 1004.22 1003.92 1004.16 1004.78 1004.92 1004.91 1005.30 1006.06 1005.84 1003.88 1003.60 1003.63 1001.58 1002.33 1002.76 1003.64 1004.85 1006.33 1007.62 1008.81
1019.16 1018.78 1019.03 1018.75 1018.72 1018.38 1018.30 1018.43 1018.77 1018.77 1018.04 1017.13 1015.75 1014.47 1013.46 1012.92 1012.00 1011.35 1010.84 1010.36 1010.08 1009.22 1007.59 1005.97 1004.92 1003.59 1003.14 1002.96 1002.96 1003.35 1003.25 1003.02 1003.32 1003.11 1003.07 1003.67 1002.16 1001.10 1001.37 1001.71 1002.53 1003.63 1004.62 1006.43 1007.89
1019.02 1019.07 1019.37 1018.73 1018.27 1018.09 1018.36 1019.38 1020.43 1020.34 1019.92 1018.36 1016.80 1015.32 1014.77 1014.45 1014.03 1012.92 1012.35 1012.11 1012.07 1011.66 1010.37 1007.51 1004.87 1003.37 1002.58 1002.44 1002.20 1002.77 1003.01 1002.53 1002.67 1003.29 1003.22 1002.63 1002.30 1001.47 1001.07 1001.50 1002.25 1003.32 1004.61 1005.56 1006.80
1019.72 1019.91 1019.55 1019.25 1018.44 1018.24 1019.40 1020.83 1020.87 1020.61 1019.86 1019.04 1018.42 1017.65 1016.90 1016.00 1015.14 1014.28 1013.65 1013.67 1013.47 1013.11 1012.56 1009.52 1006.52 1003.46 1002.41 1002.14 1002.12 1001.66 1001.73 1002.64 1002.82 1002.90 1002.53 1002.24 1001.70 1000.89 1001.15 1001.18 1001.87 1003.05 1004.06 1004.98 1006.19
1020.34 1020.91 1020.63 1019.69 1019.03 1019.94 1021.78 1022.06 1021.57 1021.04 1020.42 1019.91 1019.51 1019.09 1018.50 1017.66 1016.53 1015.34 1015.02 1014.57 1014.49 1013.57 1012.48 1010.52 1008.17 1004.56 1002.88 1001.87 1001.41 1001.86 1001.76 1001.92 1002.58 1002.87 1002.24 1002.21 1001.45 1000.89 1000.54 1000.68 1001.19 1002.12 1002.95 1004.01 1005.40
1021.57 1022.66 1021.72 1020.84 1021.33 1022.61 1022.98 1022.99 1022.46 1021.64 1020.86 1020.45 1020.03 1019.54 1019.47 1018.40 1017.26 1016.28 1015.74 1015.48 1015.32 1014.98 1013.28 1011.67 1009.39 1006.08 1003.22 1002.03 1001.35 1001.34 1001.29 1001.44 1002.00 1002.69 1002.81 1002.54 1001.58 1001.26 1000.78 1000.52 1000.80 1001.37 1002.08 1003.42 1004.55
1023.51 1023.87 1023.16 1022.50 1023.75 1024.11 1023.74 1023.47 1022.94 1022.18 1021.47 1021.02 1020.65 1020.47 1020.17 1019.06 1018.16 1016.86 1016.32 1015.52 1015.24 1014.97 1014.04 1012.94 1009.85 1006.77 1004.18 1003.07 1002.04 1001.66 1001.77 1001.82 1002.17 1002.82 1002.74 1002.80 1002.58 1002.57 1002.20 1002.03 1001.62 1001.42 1001.89 1002.94 1004.03
1024.39 1025.17 1025.10 1024.94 1025.45 1025.13 1024.64 1024.21 1023.25 1022.53 1021.94 1021.72 1021.16 1020.82 1020.40 1019.41 1018.64 1017.82 1016.90 1015.86 1015.67 1015.03 1014.67 1013.67 1011.06 1008.50 1005.64 1004.04 1003.16 1002.30 1002.05 1002.03 1002.34 1002.66 1003.02 1003.39 1003.69 1004.17 1004.28 1003.95 1003.20 1002.59 1002.48 1002.98 1003.92
1025.83 1027.28 1027.30 1026.78 1026.04 1025.81 1025.14 1024.87 1024.08 1023.15 1022.44 1021.88 1021.15 1021.19 1021.03 1019.97 1019.07 1017.91 1017.41 1016.85 1015.85 1015.55 1014.76 1014.48 1012.37 1009.84 1007.37 1005.56 1004.61 1003.76 1002.92 1002.81 1002.89 1003.02 1003.48 1004.17 1005.50 1006.49 1006.48 1006.00 1004.99 1003.56 1003.27 1003.91 1004.42
1027.17 1027.73 1027.47 1027.24 1026.71 1026.14 1025.72 1025.19 1024.53 1023.52 1023.13 1021.88 1021.51 1020.86 1020.71 1020.06 1019.70 1018.55 1018.24 1018.03 1016.92 1015.86 1015.55 1015.16 1013.16 1011.00 1008.22 1005.80 1005.29 1005.06 1005.11 1004.78 1005.06 1005.58 1005.21 1005.63 1007.54 1008.42 1008.10 1007.53 1006.39 1005.35 1004.62 1004.68 1005.03
1028.07 1028.09 1027.95 1027.89 1027.29 1026.60 1026.57 1026.01 1024.98 1024.30 1022.85 1022.31 1021.73 1020.86 1019.78 1019.35 1019.19 1018.57 1018.23 1018.01 1017.66 1017.32 1016.50 1015.74 1014.39 1012.07 1008.75 1007.25 1006.41 1007.49 1008.60 1008.25 1008.77 1008.78 1008.47 1008.33 1009.92 1009.33 1008.67 1008.30 1007.81 1007.67 1007.20 1006.96 1006.37
Wind_Speed
17 17 17 17 18 18 17 17 16 16 15 15 15 15 16 17 18 11 8 8 7 7 4 6 0 5 5 4 1 1 9 14 22 17 7 2 4 3 1 8 3 4 5 14 21
18 19 19 19 19 19 18 17 17 17 16 15 15 15 15 17 15 8 11 14 13 10 4 5 8 6 5 4 6 7 10 15 11 10 7 7 3 5 4 8 4 8 15 23 21
19 20 20 20 20 20 19 18 18 17 15 14 13 13 13 15 6 6 4 7 5 8 7 4 6 6 6 4 8 7 14 11 9 11 12 10 6 3 9 8 7 16 20 22 21
20 21 21 22 22 22 21 21 19 17 15 13 11 10 12 5 6 3 5 15 7 7 6 4 3 7 7 10 6 9 11 13 7 9 5 9 6 4 6 0 9 21 19 22 21
21 22 23 23 24 24 23 23 21 19 16 13 11 7 3 3 14 3 12 12 8 8 5 8 9 7 13 7 8 12 9 15 10 9 7 7 10 6 4 6 20 22 22 21 20
22 23 23 24 24 23 24 23 22 20 18 14 9 2 1 7 2 2 2 6 6 3 4 8 9 10 6 10 16 6 15 11 21 13 11 13 7 9 7 16 19 20 24 25 28
22 23 24 24 25 24 24 25 23 21 17 12 7 6 6 18 2 7 7 11 11 12 12 11 8 10 7 3 13 9 7 18 18 19 13 9 10 11 13 18 18 18 24 26 24
22 23 24 24 24 24 24 24 21 16 8 2 8 6 9 6 6 12 9 6 6 12 16 11 7 7 6 2 4 16 8 16 15 15 8 20 22 15 15 21 20 22 22 16 15
22 22 23 23 23 23 24 23 17 4 3 10 5 3 11 5 5 9 9 4 2 4 8 10 6 8 7 7 10 14 12 19 8 23 11 19 17 16 17 21 20 22 18 14 13
22 22 22 22 21 21 23 20 5 1 3 5 2 4 6 6 3 4 8 5 4 5 4 6 7 9 4 14 19 16 13 8 17 10 20 19 12 15 20 21 23 20 17 17 14
23 22 21 21 21 20 11 4 7 3 3 6 7 7 15 8 12 5 2 7 6 4 8 11 9 18 31 23 5 15 11 13 13 11 20 23 21 17 20 20 18 18 18 17 14
24 23 22 20 19 14 3 5 3 5 13 10 16 13 16 7 8 6 6 6 7 9 10 8 20 17 10 15 13 4 10 7 7 14 14 20 24 19 20 21 24 24 21 19 15
24 23 22 20 15 3 2 3 3 2 6 10 6 5 6 6 6 9 9 6 6 10 19 20 8 15 12 17 19 18 10 7 5 11 5 16 22 11 15 13 14 14 16 13 16
24 23 19 20 2 3 2 2 7 3 4 6 2 1 3 7 7 8 8 7 7 13 13 15 16 16 19 18 19 20 17 14 1 14 10 18 10 18 18 21 19 17 15 16 15
24 20 15 5 2 3 4 11 6 2 6 9 5 5 19 5 13 2 5 6 14 9 9 11 17 15 14 18 19 10 15 20 12 5 4 14 7 16 20 19 20 20 18 17 17
23 17 8 2 1 4 9 9 1 1 8 6 9 17 20 7 10 11 6 6 5 10 8 15 4 11 17 15 19 9 12 18 13 7 7 12 12 10 19 24 22 21 21 21 18
19 11 4 1 6 11 6 0 2 4 12 9 12 19 17 13 10 12 11 9 5 4 10 6 12 10 5 17 16 16 15 8 8 7 9 10 12 8 21 22 26 25 22 23 19
13 3 4 1 7 5 1 1 1 7 8 18 16 19 7 15 9 15 9 6 11 10 4 11 10 10 13 16 13 24 18 7 19 17 15 5 10 8 18 19 23 23 23 23 22
3 3 4 12 10 1 4 6 4 7 12 14 18 7 5 11 9 10 11 8 8 15 7 4 9 4 14 5 13 12 13 10 5 3 9 8 3 6 6 17 19 19 16 23 23
3 3 11 18 9 4 7 5 4 12 12 11 11 10 10 14 12 11 9 5 9 10 11 5 5 8 12 7 8 16 14 9 2 8 9 7 12 7 9 16 17 19 19 21 21
4 5 10 17 5 8 5 5 6 15 15 9 7 8 10 16 15 7 8 4 15 15 15 7 4 1 8 11 13 7 11 6 5 1 7 6 10 5 13 16 18 20 20 21 23
3 6 12 8 8 3 4 6 10 11 10 7 7 9 10 15 11 6 7 4 6 13 10 5 5 5 14 2 13 14 9 16 7 8 2 1 2 2 10 15 17 20 20 20 22
4 1 5 6 6 5 6 11 9 14 12 9 6 9 14 8 8 10 9 11 7 10 7 11 4 4 7 4 5 14 8 13 5 4 4 1 2 10 9 1 11 16 17 17 20
3 5 5 5 3 9 7 12 15 12 9 9 8 8 17 13 10 12 12 8 19 9 8 11 5 5 2 3 4 6 15 15 12 8 10 4 4 13 16 15 12 7 11 16 18
5 3 0 5 7 7 8 10 13 14 5 9 4 14 14 9 17 5 7 17 10 2 10 6 5 12 12 11 3 5 7 15 17 11 14 7 4 9 12 14 13 4 10 14 17
4 3 3 4 5 8 11 12 14 19 6 10 13 19 16 10 13 20 16 12 8 8 11 9 5 12 4 6 11 17 16 10 8 5 3 17 5 11 8 9 16 17 5 11 14
1 2 1 4 5 6 7 10 13 17 8 11 18 20 19 12 11 16 18 17 17 15 11 6 8 9 4 6 5 11 12 14 17 15 4 4 5 13 10 12 18 16 15 14 8
Wind_Direction
357 353 350 347 345 341 338 334 332 329 326 326 327 327 324 321 314 299 248 226 204 293 295 308 195 140 145 219 170 287 203 215 214 219 223 183 218 99 43 149 105 120 128 136 144
354 352 348 345 340 337 334 331 327 323 322 322 324 327 329 327 311 258 249 268 258 264 286 223 203 152 164 199 197 209 217 210 217 200 185 158 217 145 141 160 111 87 108 132 142
350 348 346 343 340 337 334 330 325 322 321 321 322 326 329 334 288 203 137 356 228 199 217 302 277 178 188 164 195 200 225 194 212 189 160 182 173 153 154 196 187 160 141 142 144
349 346 345 342 340 337 334 329 324 320 319 322 325 333 332 334 316 202 226 352 328 192 181 176 208 192 204 202 184 230 231 206 197 184 160 202 161 188 191 205 168 144 146 147 152
347 345 344 341 339 335 330 324 319 318 315 314 315 325 7 353 249 314 348 353 42 143 206 188 189 197 207 196 198 215 220 206 194 181 179 142 203 204 189 139 144 142 151 157 156
344 343 342 338 334 330 325 318 316 313 307 296 287 209 227 271 220 311 59 1 350 309 258 195 205 203 236 218 198 188 207 219 218 217 169 196 168 164 155 143 147 157 164 168 171
343 343 339 334 329 326 322 316 314 312 303 291 252 169 221 253 204 261 265 267 261 250 243 235 238 208 199 209 214 204 192 220 222 220 197 173 205 204 156 162 162 175 177 182 185
343 341 335 329 325 323 319 312 317 315 321 320 155 164 247 250 260 274 260 275 241 222 232 247 247 247 222 271 137 203 214 222 211 194 197 194 221 220 164 167 180 185 190 198 199
341 337 331 326 323 320 316 310 313 318 75 123 128 195 264 319 247 258 197 224 214 159 198 251 187 218 187 203 186 192 218 212 209 198 175 200 211 198 178 185 184 191 196 200 192
338 335 331 327 324 322 312 316 287 343 195 198 234 245 248 308 290 247 199 205 252 100 116 198 198 196 186 195 201 186 208 208 206 187 201 190 193 165 185 187 192 187 196 189 179
336 333 331 328 327 326 331 11 9 342 31 264 271 274 285 299 297 246 174 167 163 172 186 201 203 201 198 200 178 189 203 221 207 187 180 196 199 186 187 200 195 186 188 184 180
335 333 330 329 328 330 356 70 73 268 302 268 251 250 266 275 296 283 161 213 170 198 173 186 225 220 210 197 215 195 213 222 202 192 196 191 197 201 185 197 198 195 189 186 173
334 332 331 329 327 28 352 96 95 328 281 295 228 243 279 181 275 291 181 191 217 193 190 203 227 190 171 184 202 229 209 206 227 168 194 174 205 189 206 211 209 206 198 180 184
332 332 332 327 65 326 303 17 307 247 292 279 308 39 354 291 269 223 217 218 212 219 210 219 214 192 187 187 189 208 217 233 222 169 191 192 197 206 197 207 206 204 190 180 184
333 333 336 359 288 316 337 333 314 184 312 351 334 352 330 294 311 225 233 227 239 198 193 209 193 196 199 210 191 208 191 216 225 246 214 195 234 196 196 202 207 203 194 183 180
334 337 341 55 19 270 330 319 185 24 254 349 333 345 335 327 324 319 320 255 264 227 220 219 196 186 208 202 193 181 170 197 223 244 257 220 221 194 192 206 198 207 197 189 180
336 344 31 54 321 313 324 96 289 193 345 6 327 331 324 345 331 348 337 24 11 240 210 203 217 212 178 191 187 197 179 151 182 195 224 203 207 234 194 197 198 196 190 187 180
336 29 2 263 322 308 142 73 76 4 4 324 325 315 323 8 335 327 357 344 32 360 285 205 216 194 200 184 179 200 187 175 171 207 200 184 216 214 198 203 196 195 187 182 179
5 4 33 341 343 326 77 54 27 358 335 328 316 311 345 353 334 341 353 347 30 15 341 289 220 192 190 178 168 178 201 198 160 67 171 195 229 276 211 196 200 194 178 182 183
65 36 4 340 340 49 61 67 25 360 335 345 9 5 359 339 336 340 359 56 355 360 341 288 273 215 190 163 185 193 181 195 223 162 187 188 191 180 178 197 200 183 188 186 186
49 62 332 342 16 48 60 21 341 346 357 342 347 342 345 341 320 313 350 325 12 335 323 314 268 18 154 194 185 170 192 214 150 203 205 165 206 212 182 196 195 193 193 188 187
66 60 332 338 48 29 41 20 339 346 342 349 304 341 348 316 305 323 323 324 31 334 330 349 297 265 196 162 197 197 196 196 188 192 129 297 132 280 219 196 193 193 193 187 187
69 37 339 7 54 16 353 6 351 354 330 354 322 356 349 308 313 336 331 311 339 342 335 352 277 261 158 146 152 188 185 190 165 137 188 131 155 29 32 337 223 206 192 186 186
74 26 345 41 42 29 357 8 354 340 318 337 296 352 345 325 330 303 306 311 333 333 324 328 289 311 209 105 25 158 188 188 181 194 185 225 107 15 18 13 358 250 203 185 180
25 66 344 358 2 7 14 5 354 354 317 318 309 339 330 298 312 278 316 328 324 49 358 18 289 343 300 268 264 41 195 175 191 187 183 179 114 9 358 352 349 323 173 176 178
74 28 6 1 342 5 13 359 345 339 300 325 322 322 315 281 279 292 300 314 292 326 352 355 296 325 264 93 120 71 36 112 61 20 18 124 100 2 358 22 38 32 124 170 183
34 57 40 348 353 11 1 337 318 334 312 287 313 310 305 299 279 270 276 271 265 288 304 308 332 334 121 342 138 42 8 70 78 49 21 97 352 339 2 27 38 34 39 41 36